Location: Unspecified
(51.0950°N, 12.9690°E)
Time: 23:11:32
(UTC+00:00)

First-Move - Pass Details

Date: 26 April 2024
Orbit: 539 x 600 km, 97.7° (Epoch: 17 May)

Event Time Altitude Azimuth Distance (km) Brightness Sun altitude
Rises 02:28:31 0° 16° (NNE) 2,871 ? -11.7°
Reaches altitude 10° 02:30:44 10° 20° (NNE) 1,966 ? -11.5°
Maximum altitude 02:34:58 61° 101° (E) 692 ? -11.0°
Drops below altitude 10° 02:39:11 10° 182° (S) 1,949 ? -10.4°
Enters shadow 02:40:34 - 185° (S) 2,514 ? -10.3°
